Location: The Saddle
(36.8333°N, 80.3417°W)
Time: 19:00:30
(UTC-04:00)

First-Move - Visible Passes

Search period start: 31 March 2023 00:00
Search period end: 10 April 2023 00:00
Orbit: 563 x 644 km, 97.7° (Epoch: 30 March)

Date Brightness Start Highest point End Pass type
(mag) Time Alt. Az. Time Alt. Az. Time Alt. Az.
31 Mar ? 04:40:52 10° NNE 04:43:55 41° NE 04:43:55 41° NE visible
31 Mar ? 06:18:59 10° NW 06:20:09 11° WNW 06:20:45 11° WNW visible
01 Apr ? 04:52:57 10° NNE 04:56:21 58° NE 04:56:21 58° NE visible
02 Apr ? 05:05:06 10° N 05:08:45 68° NNW 05:08:45 68° NNW visible
03 Apr ? 05:17:17 10° N 05:21:07 52° WNW 05:21:07 52° WNW visible
04 Apr ? 03:55:14 10° ENE 03:56:38 13° E 03:56:38 13° E visible
04 Apr ? 05:29:31 10° N 05:33:15 37° WNW 05:33:27 37° W visible
05 Apr ? 04:06:33 10° NE 04:08:57 19° E 04:08:57 19° E visible
05 Apr ? 05:41:49 10° NNW 05:45:14 27° WNW 05:45:46 26° W visible
06 Apr ? 04:18:08 10° NE 04:21:14 26° E 04:21:14 26° E visible
06 Apr ? 05:54:14 10° NNW 05:57:10 20° WNW 05:58:03 18° W visible
07 Apr ? 04:29:51 10° NNE 04:33:29 37° E 04:33:29 37° E visible
07 Apr ? 06:06:50 10° NNW 06:09:03 14° WNW 06:10:18 13° W visible
08 Apr ? 04:41:39 10° NNE 04:45:37 53° E 04:45:43 53° ESE visible
08 Apr ? 06:20:07 10° NW 06:20:53 10° WNW 06:21:39 10° WNW visible
09 Apr ? 04:53:31 10° NNE 04:57:33 77° ESE 04:57:55 70° SSE visible
